Location: Dannhausen
(51.8650°N, 10.1026°E)
Time: 09:18:09
(UTC+00:00)

Cosmos 2082 Rocket - Pass Details

Date: 09 April 2020
Orbit: 831 x 855 km, 71.0° (Epoch: 24 May)

Event Time Altitude Azimuth Distance (km) Brightness Sun altitude
Exits shadow 20:34:28 23° 83° (E) 1,722 3.5 -20.3°
Drops below altitude 10° 20:37:43 10° 50° (NE) 2,470 4.6 -20.7°
Sets 20:40:33 0° 38° (NE) 3,414 5.5 -21.0°
